Location: Alafon
(8.4500°N, 4.2333°E)
Time: 16:43:53
(UTC+00:00)

N. Korean satellite - Pass Details

Date: 20 June 2021
Orbit: 451 x 498 km, 97.2° (Epoch: 01 August)

Event Time Altitude Azimuth Distance (km) Brightness Sun altitude
Rises 04:38:37 0° 13° (NNE) 2,558 10.8 -11.5°
Reaches altitude 10° 04:40:41 10° 15° (NNE) 1,683 9.9 -11.0°
Maximum altitude 04:44:18 75° 101° (E) 516 6.8 -10.2°
Drops below altitude 10° 04:47:57 10° 186° (S) 1,695 9.0 -9.4°
Sets 04:50:02 0° 188° (S) 2,579 9.9 -9.0°
